Location: Fuller Park
(33.8686°N, 117.9781°W)
Time: 22:43:15
(UTC+00:00)

Cosmos 1939 Rocket - Visible Passes

Search period start: 05 November 2024 00:00
Search period end: 15 November 2024 00:00
Orbit: 506 x 550 km, 97.5° (Epoch: 05 November)

Date Brightness Start Highest point End Pass type
(mag) Time Alt. Az. Time Alt. Az. Time Alt. Az.
05 Nov 4.3 12:30:11 10° N 12:31:44 24° N 12:31:44 24° N visible
06 Nov 4.8 12:19:05 10° NNE 12:20:10 18° NNE 12:20:10 18° NNE visible
07 Nov 5.3 12:08:03 10° NNE 12:08:34 14° NNE 12:08:34 14° NNE visible
